FW5754 Weather Reports


Display with metric or nautical units.
time (UTC)temp
F
wind
direction
speed
MPH
gust
MPH
rain 1hr
in
rain 24hr
in
rain mn
in
humidity
%
barometer
mb
20260506192533 -52 187 7.0 20.0 0.00 0.01 0.01 1008.8
20260506192035 -54 209 9.0 20.0 0.01 0.01 0.01 1008.9
20260506191538 -54 190 7.0 19.0 0.01 0.01 0.01 100 1008.9
20260506191034 -54 190 6.0 20.0 0.01 0.01 0.01 1009.0
20260506190535 -54 147 7.0 22.0 0.01 0.01 0.01 1009.0
20260506190044 -54 234 6.0 22.0 0.01 0.01 0.01 1009.1
20260506185533 -54 186 7.0 18.0 0.01 0.01 0.01 1009.0
20260506185032 -54 186 6.0 18.0 0.01 0.01 0.01 1009.2
20260506184547 -54 200 8.0 18.0 0.01 0.01 0.01 1009.1
20260506184034 -54 178 7.0 17.0 0.01 0.01 0.01 1009.2
20260506183534 -54 160 7.0 17.0 0.01 0.01 0.01 1009.2
20260506183041 58 194 5.0 17.0 0.01 0.01 0.01 84 1009.4
20260506182533 58 188 6.0 15.0 0.01 0.01 0.01 84 1009.3
20260506182034 59 189 7.0 16.0 0.00 0.00 0.00 1009.3
20260506181539 59 180 8.0 16.0 0.00 0.00 0.00 83 1009.5
20260506181032 59 212 5.0 27.0 0.00 0.00 0.00 82 1009.5
20260506180534 60 204 8.0 27.0 0.00 0.00 0.00 82 1009.6
20260506180040 60 183 6.0 18.0 0.00 0.00 0.00 81 1009.9
20260506175533 60 144 7.0 18.0 0.00 0.00 0.00 100 1009.9
20260506175038 60 172 6.0 22.0 0.00 0.00 0.00 80 1010.0
20260506174545 -50 185 8.0 22.0 0.00 0.00 0.00 1010.1
20260506174034 61 207 6.0 27.0 0.00 0.00 0.00 100 1010.1
20260506173534 61 221 7.0 27.0 0.00 0.00 0.00 78 1010.2
20260506173047 60 173 8.0 24.0 0.00 0.00 0.00 78 1010.2
20260506172533 -50 165 6.0 23.0 0.00 0.00 0.00 78 1010.2
20260506172038 60 190 9.0 22.0 0.00 0.00 0.00 78 1010.2
20260506171554 61 194 7.0 19.0 0.00 0.00 0.00 78 1010.3
20260506171034 60 191 9.0 28.0 0.00 0.00 0.00 78 1010.4
20260506170534 60 186 9.0 28.0 0.00 0.00 0.00 78 1010.4
20260506170053 60 146 7.0 24.0 0.00 0.00 0.00 78 1010.4
20260506165535 -50 180 10.0 26.0 0.00 0.00 0.00 1010.5
20260506165036 -50 183 9.0 26.0 0.00 0.00 0.00 1010.4
20260506164537 -50 200 8.0 21.0 0.00 0.00 0.00 1010.7
20260506164033 -50 179 9.0 24.0 0.00 0.00 0.00 100 1010.7
20260506163533 -50 186 9.0 24.0 0.00 0.00 0.00 1010.6
20260506163045 -50 188 9.0 24.0 0.00 0.00 0.00 1010.6
20260506162533 158 165 9.0 18.0 0.00 0.00 0.00 1010.5
20260506162033 62 225 9.0 20.0 0.00 0.00 0.00 76 1010.6
20260506161543 62 146 8.0 24.0 0.00 0.00 0.00 76 1010.6
20260506161034 62 184 10.0 24.0 0.00 0.00 0.00 76 1010.8
20260506160534 62 160 9.0 24.0 0.00 0.00 0.00 76 1011.0
20260506160052 62 154 8.0 23.0 0.00 0.00 0.00 77 1011.1
20260506155534 62 190 7.0 23.0 0.00 0.00 0.00 77 1011.1
20260506155033 61 171 9.0 22.0 0.00 0.00 0.00 76 1011.3
20260506154541 62 182 9.0 22.0 0.00 0.00 0.00 76 1011.1
20260506154036 62 197 7.0 22.0 0.00 0.00 0.00 76 1011.2
20260506153533 -49 182 8.0 22.0 0.00 0.00 0.00 1011.3
20260506153037 -49 198 9.0 23.0 0.00 0.00 0.00 1011.2
20260506152531 -49 149 8.0 24.0 0.00 0.00 0.00 1011.2
20260506152033 -49 140 8.0 24.0 0.00 0.00 0.00 1011.0
20260506151544 -49 224 8.0 20.0 0.00 0.00 0.00 1011.1
20260506151034 -49 208 9.0 25.0 0.00 0.00 0.00 1011.3
20260506150530 -49 180 8.0 25.0 0.00 0.00 0.00 1011.3
20260506150042 64 192 7.0 24.0 0.00 0.00 0.00 74 1011.3
20260506145531 64 190 9.0 24.0 0.00 0.00 0.00 1011.3
20260506145033 64 224 10.0 28.0 0.00 0.00 0.00 74 1011.3
20260506144559 63 201 8.0 28.0 0.00 0.00 0.00 75 1011.3
20260506144035 63 163 11.0 26.0 0.00 0.00 0.00 75 1011.3
20260506143534 63 190 10.0 26.0 0.00 0.00 0.00 75 1011.3
20260506143038 63 202 11.0 24.0 0.00 0.00 0.00 75 1011.3
20260506142534 63 184 8.0 26.0 0.00 0.00 0.00 1011.6
20260506142033 62 169 10.0 26.0 0.00 0.00 0.00 76 1011.6
20260506141537 62 201 7.0 24.0 0.00 0.00 0.00 76 1011.7
20260506141030 62 150 10.0 24.0 0.00 0.00 0.00 76 1011.6
20260506140534 62 180 7.0 23.0 0.00 0.00 0.00 76 1011.5
20260506140037 62 182 7.0 21.0 0.00 0.00 0.00 75 1011.6
20260506135533 62 204 8.0 21.0 0.00 0.00 0.00 1011.5
20260506135034 62 174 7.0 23.0 0.00 0.00 0.00 76 1011.4
20260506134539 63 200 9.0 23.0 0.00 0.00 0.00 75 1011.4
20260506134032 63 185 9.0 28.0 0.00 0.00 0.00 74 1011.1
20260506133529 63 137 7.0 28.0 0.00 0.00 0.00 75 1011.3
20260506133040 63 180 7.0 26.0 0.00 0.00 0.00 75 1011.4
20260506132539 63 204 8.0 26.0 0.00 0.00 0.00 75 1011.5
20260506132033 63 201 7.0 24.0 0.00 0.00 0.00 75 1011.2
20260506131546 -49 225 11.0 27.0 0.00 0.00 0.00 1011.2
20260506131033 -49 205 10.0 28.0 0.00 0.00 0.00 1011.4
20260506130534 63 201 11.0 29.0 0.00 0.00 0.00 1011.4
20260506130049 -49 148 11.0 29.0 0.00 0.00 0.00 1011.6
20260506125533 63 184 10.0 19.0 0.00 0.00 0.00 75 1011.6
20260506125033 63 186 6.0 19.0 0.00 0.00 0.00 76 1011.8
20260506124543 62 217 8.0 18.0 0.00 0.00 0.00 76 1011.7
20260506124033 -49 192 7.0 19.0 0.00 0.00 0.00 77 1011.7
20260506123533 62 146 9.0 23.0 0.00 0.00 0.00 77 1011.7
20260506123050 62 226 9.0 26.0 0.00 0.00 0.00 78 1011.7
20260506122530 61 202 9.0 27.0 0.00 0.00 0.00 78 1011.7
20260506122033 61 215 7.0 27.0 0.00 0.00 0.00 79 1011.6
20260506121541 61 192 8.0 19.0 0.00 0.00 0.00 79 1011.6
20260506121036 61 206 6.0 19.0 0.00 0.00 0.00 80 1011.5
20260506120535 60 184 8.0 21.0 0.00 0.00 0.00 80 1011.5
20260506120053 60 148 8.0 23.0 0.00 0.00 0.00 100 1011.5
20260506115535 -50 165 9.0 23.0 0.00 0.00 0.00 1011.5
20260506115033 -50 209 9.0 24.0 0.00 0.00 0.00 1011.5
20260506114552 -50 190 8.0 26.0 0.00 0.00 0.00 1011.5
20260506114033 -52 178 7.0 30.0 0.00 0.00 0.00 1011.5
20260506113533 -52 181 8.0 30.0 0.00 0.00 0.00 1011.5
20260506113044 -52 179 7.0 23.0 0.00 0.00 0.00 1011.6
20260506112534 -52 184 6.0 23.0 0.00 0.00 0.00 1011.5
20260506112033 59 217 8.0 26.0 0.00 0.00 0.00 100 1011.5
20260506111548 59 190 10.0 26.0 0.00 0.00 0.00 82 1011.6
20260506111033 59 209 6.0 29.0 0.00 0.00 0.00 83 1011.4
20260506110533 -52 221 9.0 29.0 0.00 0.00 0.00 1011.5
20260506110048 -54 173 8.0 21.0 0.00 0.00 0.00 1011.4
20260506105531 -54 194 8.0 18.0 0.00 0.00 0.00 1011.5
20260506105030 58 194 7.0 19.0 0.00 0.00 0.00 100 1011.5
20260506104548 -54 178 8.0 19.0 0.00 0.00 0.00 100 1011.6
20260506104033 57 194 6.0 21.0 0.00 0.00 0.00 84 1011.4
20260506103533 57 186 8.0 21.0 0.00 0.00 0.00 84 1011.4
20260506103053 -56 201 8.0 20.0 0.00 0.00 0.00 84 1011.5
20260506102536 57 198 7.0 17.0 0.00 0.00 0.00 84 1011.3
20260506102034 57 217 7.0 17.0 0.00 0.00 0.00 1011.3
20260506101538 57 204 6.0 23.0 0.00 0.00 0.00 84 1011.4
20260506101034 57 190 8.0 24.0 0.00 0.00 0.00 84 1011.3
20260506100533 57 192 8.0 24.0 0.00 0.00 0.00 84 1011.4
20260506095533 57 189 7.0 20.0 0.00 0.00 0.00 84 1011.3
20260506095033 57 152 8.0 20.0 0.00 0.00 0.00 84 1011.1
20260506094539 58 190 7.0 22.0 0.00 0.00 0.00 83 1011.2
20260506094032 58 134 8.0 26.0 0.00 0.00 0.00 83 1011.3
20260506093530 58 178 8.0 26.0 0.00 0.00 0.00 83 1011.3
20260506093040 58 193 10.0 22.0 0.00 0.00 0.00 83 1011.4
20260506092533 58 178 8.0 18.0 0.00 0.00 0.00 100 1011.4
20260506092030 58 178 7.0 23.0 0.00 0.00 0.00 83 1011.3
20260506091538 58 180 7.0 23.0 0.00 0.00 0.00 83 1011.4
20260506091033 58 142 10.0 27.0 0.00 0.00 0.00 83 1011.3
20260506090532 58 198 9.0 29.0 0.00 0.00 0.00 1011.3
20260506090037 58 184 11.0 29.0 0.00 0.00 0.00 83 1011.5
20260506085533 58 213 10.0 23.0 0.00 0.00 0.00 83 1011.5
20260506085033 58 185 9.0 26.0 0.00 0.00 0.00 83 1011.5
20260506084541 58 177 8.0 26.0 0.00 0.00 0.00 83 1011.5
20260506084033 58 188 7.0 21.0 0.00 0.00 0.00 83 1011.6
20260506083533 58 227 8.0 24.0 0.00 0.00 0.00 1011.7
20260506083045 -54 159 7.0 24.0 0.00 0.00 0.00 1011.6
20260506082533 -54 190 8.0 22.0 0.00 0.00 0.00 1011.6
20260506082033 -54 148 7.0 22.0 0.00 0.00 0.00 1011.7
20260506081543 -54 195 9.0 21.0 0.00 0.00 0.00 1011.7
20260506081030 -54 172 8.0 22.0 0.00 0.00 0.00 1011.7
20260506080530 -54 188 10.0 22.0 0.00 0.00 0.00 1011.7
20260506073038 -52 191 8.0 27.0 0.00 0.00 0.00 1011.9
20260506072533 59 186 11.0 26.0 0.00 0.00 0.00 80 1011.8
20260506072033 59 168 9.0 22.0 0.00 0.00 0.00 80 1011.8
20260506071549 59 188 8.0 30.0 0.00 0.00 0.00 80 1012.0
20260506071033 59 198 7.0 30.0 0.00 0.00 0.00 80 1011.9
20260506070534 59 190 12.0 28.0 0.00 0.00 0.00 80 1011.8
20260506062035 59 202 9.0 22.0 0.00 0.00 0.00 80 1012.0
20260506061537 59 189 9.0 24.0 0.00 0.00 0.00 80 1011.9
20260506061031 59 195 9.0 24.0 0.00 0.00 0.00 80 1011.9
20260506060532 -52 259 9.0 24.0 0.00 0.00 0.00 100 1011.9
20260506051033 -54 198 6.0 20.0 0.00 0.00 0.00 1012.4
20260506050530 -52 190 9.0 21.0 0.00 0.00 0.00 1012.3
20260506045032 59 225 8.0 25.0 0.00 0.00 0.00 79 1012.3
20260506044546 59 186 9.0 25.0 0.00 0.00 0.00 79 1012.3
20260506044031 59 173 8.0 19.0 0.00 0.00 0.00 78 1012.2
20260506043530 60 157 9.0 23.0 0.00 0.00 0.00 78 1012.3
20260506043039 60 198 8.0 23.0 0.00 0.00 0.00 78 1012.2
20260506042531 60 178 7.0 22.0 0.00 0.00 0.00 100 1012.4
20260506042031 -50 170 9.0 25.0 0.00 0.00 0.00 1012.4
20260506041539 -50 167 9.0 26.0 0.00 0.00 0.00 1012.3
20260506041032 -50 182 11.0 31.0 0.00 0.00 0.00 1012.4
20260506040530 60 184 9.0 31.0 0.00 0.00 0.00 76 1012.4
20260506040039 60 202 11.0 29.0 0.00 0.00 0.00 76 1012.4
20260506035533 60 183 10.0 27.0 0.00 0.00 0.00 76 1012.5
20260506035034 60 239 10.0 27.0 0.00 0.00 0.00 76 1012.3
20260506034539 60 189 9.0 22.0 0.00 0.00 0.00 75 1012.4
20260506034030 60 214 8.0 22.0 0.00 0.00 0.00 75 1012.4
20260506033531 60 175 10.0 26.0 0.00 0.00 0.00 75 1012.4
20260506033043 60 198 9.0 26.0 0.00 0.00 0.00 75 1012.4
20260506032530 60 185 10.0 29.0 0.00 0.00 0.00 75 1012.7
20260506032031 60 173 8.0 29.0 0.00 0.00 0.00 75 1012.4
20260506031539 61 211 8.0 22.0 0.00 0.00 0.00 75 1012.5
20260506031034 61 206 9.0 22.0 0.00 0.00 0.00 75 1012.4
20260506030532 61 190 10.0 22.0 0.00 0.00 0.00 75 1012.5
20260506030056 61 182 8.0 22.0 0.00 0.00 0.00 74 1012.5
20260506025530 61 182 9.0 31.0 0.00 0.00 0.00 74 1012.4
20260506025034 61 196 10.0 31.0 0.00 0.00 0.00 74 1012.3
20260506024550 61 211 9.0 28.0 0.00 0.00 0.00 74 1012.4
20260506024031 61 187 9.0 32.0 0.00 0.00 0.00 73 1012.3
20260506023531 61 201 10.0 32.0 0.00 0.00 0.00 73 1012.5
20260506023036 61 193 9.0 25.0 0.00 0.00 0.00 73 1012.5
20260506022530 61 222 8.0 26.0 0.00 0.00 0.00 73 1012.3
20260506022030 61 166 10.0 26.0 0.00 0.00 0.00 73 1012.3
20260506021540 61 224 7.0 27.0 0.00 0.00 0.00 73 1012.3
20260506021030 61 189 8.0 27.0 0.00 0.00 0.00 73 1012.3
20260506020534 62 202 8.0 27.0 0.00 0.00 0.00 72 1012.4
20260506020039 62 233 11.0 27.0 0.00 0.00 0.00 72 1012.3
20260506015531 62 167 8.0 27.0 0.00 0.00 0.00 72 1012.4
20260506015033 62 217 12.0 27.0 0.00 0.00 0.00 72 1012.3
20260506014552 62 211 10.0 28.0 0.00 0.00 0.00 72 1012.2
20260506014030 62 246 9.0 29.0 0.00 0.00 0.00 72 1012.2
20260506013531 62 200 11.0 29.0 0.00 0.00 0.00 72 1011.9
20260506013037 62 186 9.0 30.0 0.00 0.00 0.00 72 1012.1
20260506012531 62 186 11.0 30.0 0.00 0.00 0.00 72 1012.0
20260506012032 62 226 11.0 32.0 0.00 0.00 0.00 72 1012.1
20260506011541 62 217 12.0 32.0 0.00 0.00 0.00 72 1012.0
20260506011035 62 156 12.0 24.0 0.00 0.00 0.00 72 1011.8
20260506010531 62 164 11.0 32.0 0.00 0.00 0.00 72 1011.8
20260506010049 62 186 13.0 32.0 0.00 0.00 0.00 72 1011.8
20260506005531 61 193 11.0 26.0 0.00 0.00 0.00 72 1011.6
20260506005030 61 190 12.0 24.0 0.00 0.00 0.00 72 1011.6
20260506004548 62 206 9.0 24.0 0.00 0.00 0.00 72 1011.5
20260506004030 62 197 10.0 24.0 0.00 0.00 0.00 72 1011.4
20260506003531 62 187 9.0 25.0 0.00 0.00 0.00 72 1011.4
20260506003043 62 234 9.0 27.0 0.00 0.00 0.00 72 1011.4
20260506002530 62 211 11.0 27.0 0.00 0.00 0.00 72 1011.2
20260506002031 62 180 9.0 27.0 0.00 0.00 0.00 72 1011.2
20260506001546 62 202 9.0 28.0 0.00 0.00 0.00 72 1010.9
20260506001031 62 176 10.0 30.0 0.00 0.00 0.00 72 1010.8
20260506000531 61 219 10.0 30.0 0.00 0.00 0.00 72 1010.9
20260506000042 61 178 10.0 26.0 0.00 0.00 0.00 73 1010.8
20260505235530 61 165 11.0 22.0 0.00 0.00 0.00 73 1010.7
20260505235031 61 148 7.0 21.0 0.00 0.00 0.00 73 1010.8
20260505234539 61 193 9.0 22.0 0.00 0.00 0.00 72 1010.7
20260505234033 61 209 9.0 22.0 0.00 0.00 0.00 72 1010.6
20260505233530 62 208 8.0 22.0 0.00 0.00 0.00 72 1010.5
20260505233044 62 184 10.0 27.0 0.00 0.00 0.00 72 1010.5
20260505232530 62 199 11.0 27.0 0.00 0.00 0.00 72 1010.4
20260505232030 62 190 9.0 27.0 0.00 0.00 0.00 72 1010.4
20260505231544 62 202 8.0 25.0 0.00 0.00 0.00 72 1010.5
20260505231031 62 193 10.0 29.0 0.00 0.00 0.00 72 1010.3
20260505230530 62 192 9.0 29.0 0.00 0.00 0.00 72 1010.3
20260505230048 62 205 12.0 29.0 0.00 0.00 0.00 72 1010.2
20260505225530 62 193 8.0 29.0 0.00 0.00 0.00 72 1010.2
20260505225033 62 182 10.0 29.0 0.00 0.00 0.00 72 1010.2
20260505224550 62 190 10.0 27.0 0.00 0.00 0.00 72 1010.1
20260505224031 62 192 8.0 23.0 0.00 0.00 0.00 72 1010.0
20260505223530 62 236 8.0 23.0 0.00 0.00 0.00 72 1010.2
20260505223050 62 195 8.0 25.0 0.00 0.00 0.00 72 1010.1
20260505222531 62 198 7.0 25.0 0.00 0.00 0.00 72 1010.0
20260505222033 62 189 8.0 25.0 0.00 0.00 0.00 72 1009.9
20260505221545 62 242 10.0 25.0 0.00 0.00 0.00 72 1009.8
20260505221031 62 169 8.0 23.0 0.00 0.00 0.00 72 1009.8
20260505220532 62 196 9.0 23.0 0.00 0.00 0.00 72 1009.8
20260505220045 62 229 8.0 20.0 0.00 0.00 0.00 72 1009.7
20260505215530 62 137 9.0 20.0 0.00 0.00 0.00 72 1009.7
20260505215030 62 157 8.0 22.0 0.00 0.00 0.00 72 1009.8
20260505214540 62 190 10.0 23.0 0.00 0.00 0.00 72 1009.8
20260505214029 62 184 7.0 25.0 0.00 0.00 0.00 72 1009.8
20260505213534 61 198 8.0 25.0 0.00 0.00 0.00 72 1009.9
20260505213045 62 174 8.0 18.0 0.00 0.00 0.00 72 1009.7
20260505212533 -50 155 7.0 24.0 0.00 0.00 0.00 1009.7
20260505212030 62 175 8.0 24.0 0.00 0.00 0.00 72 1009.7
20260505211545 62 175 7.0 17.0 0.00 0.00 0.00 72 1009.6
20260505211032 62 190 7.0 17.0 0.00 0.00 0.00 72 1009.5
20260505210530 62 184 7.0 17.0 0.00 0.00 0.00 72 1009.7
20260505210045 63 161 7.0 16.0 0.00 0.00 0.00 71 1009.5
20260505205534 63 142 8.0 21.0 0.00 0.00 0.00 71 1009.6
20260505205030 63 171 9.0 21.0 0.00 0.00 0.00 71 1009.7
20260505204540 63 209 6.0 21.0 0.00 0.00 0.00 72 1009.5
20260505204034 63 161 9.0 21.0 0.00 0.00 0.00 71 1009.5
20260505203530 63 202 7.0 21.0 0.00 0.00 0.00 71 1009.5
20260505203044 63 164 8.0 22.0 0.00 0.00 0.00 1009.5
20260505202529 -49 179 9.0 22.0 0.00 0.00 0.00 91 1009.6
20260505202030 -49 135 8.0 24.0 0.00 0.00 0.00 1009.7
20260505201545 -48 188 9.0 24.0 0.00 0.00 0.00 1009.6
20260505201030 -47 187 8.0 17.0 0.00 0.00 0.00 1009.7
20260505200530 66 220 6.0 17.0 0.00 0.00 0.00 70 1009.8
20260505200039 66 182 7.0 19.0 0.00 0.00 0.00 70 1009.8
20260505195533 65 202 5.0 21.0 0.00 0.00 0.00 71 1009.8
20260505195029 65 179 5.0 21.0 0.00 0.00 0.00 71 1009.9
20260505194547 65 188 7.0 21.0 0.00 0.00 0.00 70 1009.9
20260505194031 64 186 6.0 20.0 0.00 0.00 0.00 72 1010.1
20260505193534 63 166 7.0 19.0 0.00 0.00 0.00 72 1010.2
20260505193052 63 149 6.0 19.0 0.00 0.00 0.00 72 1010.3